Wind_Speed
31 31 31 31 31 31 31 31 31 31 31 31 31 31 31 31 32 32 33 34 35 35 36 37 38 38 39 39 39 40 41 41 40 39 40 40 41 42 43 44 45 46 47
33 32 32 31 32 31 31 31 32 32 32 32 33 33 33 32 33 34 35 36 37 37 38 39 39 40 41 41 41 42 42 43 43 42 41 41 42 44 45 46 47 48 50
33 32 32 32 32 32 32 32 32 32 32 33 34 34 34 34 35 36 37 38 39 40 40 41 41 42 43 43 43 43 44 44 45 45 45 45 44 45 45 47 49 50 52
33 33 33 33 32 32 32 32 32 33 33 34 34 35 35 36 37 38 39 40 41 41 42 43 43 44 45 45 45 45 46 46 47 48 49 50 50 50 48 47 50 52 53
33 33 33 33 32 32 32 33 33 33 34 34 35 36 37 37 38 39 40 41 42 43 44 45 45 46 47 47 47 47 48 48 49 50 51 52 53 54 55 53 52 53 55
33 33 33 33 33 33 33 33 33 34 35 35 36 37 38 39 40 41 42 43 44 45 46 47 47 48 48 48 49 49 49 50 51 52 53 54 55 57 59 59 58 57 57
33 33 32 32 33 33 33 33 34 35 35 36 37 38 39 40 41 42 43 45 46 47 48 49 49 50 50 50 50 51 51 52 53 54 55 56 58 59 61 62 62 62 60
32 32 32 32 32 33 33 33 34 35 36 36 37 39 40 41 42 44 45 46 48 49 49 50 51 51 51 51 52 52 53 54 55 56 57 58 60 61 62 63 64 64 63
31 31 31 31 32 32 33 34 34 35 36 38 39 40 41 42 44 45 47 48 49 50 51 52 52 52 52 53 53 54 55 55 56 57 58 59 60 61 63 64 66 67 67
31 31 31 31 31 32 33 34 34 36 37 39 40 41 42 44 45 47 48 49 50 51 52 53 53 53 53 54 54 55 56 56 57 58 59 60 61 63 64 66 67 69 70
31 31 31 31 32 32 33 34 35 36 38 39 41 42 43 45 47 48 49 50 51 52 52 53 53 54 55 55 56 56 57 58 58 59 60 61 63 64 66 67 69 70 72
31 31 31 32 32 33 34 35 36 37 39 40 42 44 45 47 48 49 50 51 51 52 52 53 54 54 55 56 56 57 58 58 59 61 62 63 65 66 67 69 70 72 74
31 31 32 32 33 34 35 36 37 39 40 42 43 45 46 48 49 49 50 50 51 52 53 54 54 55 56 57 57 58 59 60 61 62 63 65 67 68 70 71 73 75 78
32 33 33 34 34 35 37 38 39 40 42 43 44 46 47 48 48 49 50 51 52 53 54 55 55 56 57 58 58 59 60 61 62 64 66 68 70 72 73 75 77 80 82
33 34 34 35 35 37 38 39 40 41 42 44 45 46 47 48 49 50 51 51 52 54 54 55 56 57 58 59 60 60 61 63 65 67 69 71 73 75 78 80 82 84 85
35 35 35 36 37 37 39 40 41 42 44 45 46 47 48 48 49 50 51 52 53 54 55 56 56 57 58 60 61 63 65 67 69 71 73 75 77 80 82 84 85 87 87
35 35 36 36 37 38 40 41 43 44 45 46 46 47 48 49 50 51 52 52 53 54 55 56 57 58 61 63 65 67 69 70 73 75 77 79 81 83 84 85 85 85 84
35 35 36 37 39 40 41 43 44 45 45 46 46 47 48 49 50 51 52 53 54 55 56 57 59 61 64 66 68 70 72 74 76 78 81 82 82 83 85 84 83 81 79
36 37 38 39 40 41 42 43 44 45 45 46 47 48 49 49 50 51 53 53 55 56 57 59 62 64 67 70 72 75 77 78 79 81 82 82 83 83 83 82 80 76 72
37 38 39 40 41 42 43 44 44 45 45 46 47 48 49 50 51 52 53 54 56 58 60 62 65 68 71 74 76 79 81 81 81 81 81 82 82 81 80 78 74 70 65
37 39 40 41 42 43 43 44 44 45 45 46 47 48 49 50 51 53 54 56 58 61 63 66 68 71 74 77 79 81 83 83 82 81 81 79 78 76 73 70 66 62 57
38 39 40 41 42 43 43 44 44 44 45 45 47 48 49 51 52 54 56 59 62 64 67 70 72 74 77 79 81 82 83 83 83 81 78 75 73 69 65 62 58 54 49
39 40 41 41 42 42 43 43 43 44 45 46 47 48 50 52 54 57 59 62 65 68 71 74 75 77 79 80 82 82 82 82 80 77 74 70 66 62 58 55 51 47 43
39 39 40 41 41 42 42 42 43 44 45 46 48 50 52 54 57 59 62 66 69 72 74 76 79 80 80 81 82 81 80 78 75 72 68 63 59 56 52 48 44 41 38
38 39 39 40 41 41 42 42 43 45 46 48 50 52 54 57 60 63 66 69 72 75 77 80 82 82 82 82 82 80 77 73 70 67 62 57 53 49 45 42 38 36 34
38 38 39 40 40 41 42 43 44 46 48 50 52 55 57 60 63 66 69 71 74 77 79 82 83 84 83 81 78 75 71 68 65 61 56 51 48 44 40 36 34 32 32
Wind_Direction
281 282 281 281 281 280 279 279 278 277 278 278 279 281 282 284 285 287 288 290 291 293 294 295 296 296 296 295 295 294 293 292 291 289 288 286 285 284 283 283 282 282 282
282 281 281 280 280 280 279 278 277 277 277 278 279 280 282 283 285 287 289 290 292 293 295 296 296 296 296 296 295 294 293 292 290 288 286 285 284 284 284 284 283 283 283
280 280 281 280 280 280 278 277 276 276 276 278 279 280 282 284 286 288 289 290 292 294 296 296 297 297 297 297 296 295 294 292 291 289 287 285 282 281 281 282 283 283 283
279 279 280 280 280 279 278 276 275 275 276 277 278 281 282 284 286 288 290 291 293 295 296 297 298 298 298 298 298 296 295 293 292 291 290 288 286 284 280 279 280 280 281
278 279 279 279 279 277 276 275 274 275 276 277 279 281 283 285 287 289 291 293 294 295 296 297 298 298 298 298 298 297 296 294 293 292 291 290 289 288 286 283 282 282 283
277 277 278 278 277 276 274 273 274 275 276 277 279 281 283 286 288 290 292 293 294 295 296 298 298 299 299 298 298 297 296 295 294 293 292 291 290 289 288 287 286 285 284
276 276 276 276 275 274 273 273 274 275 276 278 280 282 285 287 289 291 293 294 295 296 297 298 299 299 299 299 298 297 297 296 295 295 294 293 292 291 291 290 289 288 287
275 275 275 274 273 273 272 273 274 275 277 279 281 284 286 288 290 292 294 295 296 297 298 299 300 300 300 299 298 298 298 297 296 296 295 294 294 293 293 293 292 291 290
273 273 273 272 272 272 272 273 275 276 278 281 283 286 288 290 292 293 295 296 297 298 299 300 300 300 300 299 299 299 298 298 297 297 296 295 295 295 294 294 294 293 292
272 272 272 271 272 273 274 275 277 278 280 283 285 287 290 291 293 295 296 297 298 299 299 300 300 300 300 300 300 300 299 299 298 298 297 296 296 295 295 295 295 295 295
270 271 271 272 273 275 276 277 279 281 283 285 287 289 291 293 294 296 297 298 299 299 300 300 300 300 300 300 300 300 300 300 299 298 298 297 297 297 297 297 297 297 297
271 272 273 274 275 277 278 279 281 283 285 287 289 290 292 294 296 297 298 298 299 300 300 301 301 301 301 301 301 301 301 300 300 299 299 299 298 298 298 298 298 298 298
271 272 274 276 278 279 280 281 283 285 286 289 291 293 294 295 296 298 299 299 300 301 301 302 302 302 302 301 301 301 301 301 301 300 300 300 300 300 299 299 299 299 299
270 272 274 277 278 280 281 282 284 286 289 291 293 294 295 296 297 299 299 300 301 301 302 302 302 302 302 302 302 302 302 302 302 302 302 301 301 301 300 300 300 300 299
273 275 276 277 279 281 283 285 287 290 292 294 295 296 296 297 298 299 300 301 302 302 302 303 303 303 303 303 303 303 303 303 303 303 303 302 302 302 301 301 301 300 300
276 278 278 280 282 284 286 288 290 292 293 295 296 296 297 298 299 300 301 301 302 303 303 303 303 304 304 304 304 304 304 304 304 304 304 303 303 303 302 302 302 302 302
278 280 281 282 284 287 288 290 292 293 294 295 296 297 298 299 300 301 301 302 303 303 304 304 304 304 305 305 305 305 305 306 305 305 304 304 304 303 303 303 302 302 302
280 281 283 285 287 289 290 292 293 295 296 296 297 298 299 300 301 302 302 303 303 304 304 305 305 306 306 306 306 306 306 306 306 305 305 305 305 304 304 303 303 303 302
282 284 286 288 289 291 292 294 295 296 297 297 298 299 300 300 301 302 303 304 305 305 306 306 306 307 307 307 307 306 306 306 306 306 306 305 305 305 305 304 304 303 302
284 286 288 290 291 293 294 295 296 297 297 298 299 299 300 301 302 303 304 305 306 306 307 307 307 307 307 307 307 307 307 307 306 307 306 306 306 306 306 305 305 304 303
286 288 290 291 293 294 295 296 297 297 298 298 299 301 302 303 304 304 305 306 307 307 307 308 308 308 308 308 308 308 308 308 308 308 307 307 307 307 306 306 305 305 304
288 290 292 293 294 295 296 297 297 298 299 300 301 302 303 304 305 306 307 307 308 308 308 308 309 309 309 309 309 308 308 308 309 309 309 308 308 307 307 306 305 304 303
290 291 293 294 295 295 296 297 298 299 301 302 303 304 305 306 306 307 308 308 308 309 309 309 309 310 310 309 309 309 309 309 309 309 309 309 308 308 307 306 305 304 303
291 293 294 294 295 296 297 298 300 301 302 303 304 305 306 307 307 308 309 309 309 309 310 310 310 310 310 310 309 309 309 309 309 309 309 309 308 307 306 305 303 302 302
293 294 295 296 297 298 299 300 302 303 304 305 306 306 307 308 308 309 310 310 310 311 311 311 311 311 311 310 310 310 310 310 309 309 309 309 308 307 306 304 303 301 300
294 295 296 297 298 299 300 302 303 304 305 306 307 307 308 308 309 310 310 311 311 311 312 312 312 312 312 311 311 310 310 310 310 310 310 310 309 308 306 304 301 300 300
Height
5819 5818 5817 5816 5815 5814 5813 5811 5810 5808 5807 5806 5805 5803 5802 5800 5798 5796 5794 5792 5790 5787 5785 5782 5779 5776 5773 5770 5767 5764 5762 5759 5757 5755 5752 5749 5746 5744 5741 5738 5736 5733 5731
5812 5811 5811 5809 5808 5807 5806 5804 5803 5802 5801 5799 5798 5797 5795 5793 5792 5790 5787 5785 5782 5780 5777 5774 5771 5768 5765 5762 5759 5756 5752 5749 5747 5745 5743 5741 5738 5734 5731 5728 5725 5722 5720
5805 5804 5803 5803 5802 5800 5799 5798 5796 5795 5794 5793 5791 5790 5788 5786 5785 5783 5780 5777 5775 5772 5769 5766 5763 5759 5756 5753 5749 5746 5743 5739 5736 5733 5732 5730 5729 5726 5724 5719 5715 5711 5708
5798 5797 5796 5795 5795 5793 5792 5791 5789 5788 5787 5786 5784 5783 5781 5779 5777 5775 5772 5770 5767 5764 5760 5757 5754 5750 5747 5743 5740 5736 5732 5729 5725 5722 5719 5716 5713 5712 5713 5711 5706 5701 5697
5791 5790 5789 5788 5787 5786 5785 5784 5782 5781 5780 5778 5777 5775 5774 5772 5770 5767 5764 5761 5758 5755 5752 5748 5744 5741 5737 5733 5729 5725 5721 5718 5714 5710 5707 5703 5699 5695 5694 5695 5693 5689 5685
5784 5783 5782 5781 5780 5779 5778 5777 5775 5774 5772 5771 5769 5768 5766 5764 5761 5759 5756 5753 5749 5746 5742 5738 5734 5730 5726 5722 5718 5714 5710 5706 5702 5698 5694 5690 5686 5682 5678 5676 5675 5673 5671
5776 5775 5775 5774 5773 5772 5771 5769 5768 5767 5765 5764 5762 5760 5758 5756 5753 5750 5747 5744 5740 5736 5732 5728 5724 5720 5715 5711 5707 5702 5698 5694 5689 5685 5680 5676 5671 5666 5662 5658 5655 5653 5652
5768 5768 5767 5767 5766 5765 5763 5762 5761 5759 5758 5756 5754 5752 5750 5747 5744 5741 5738 5734 5730 5726 5722 5717 5713 5708 5704 5699 5695 5690 5685 5681 5676 5671 5666 5661 5656 5651 5645 5641 5636 5634 5633
5761 5760 5760 5759 5758 5757 5756 5755 5753 5752 5750 5748 5746 5744 5741 5739 5735 5732 5728 5724 5720 5715 5711 5706 5702 5697 5692 5687 5682 5678 5673 5668 5662 5657 5652 5647 5641 5635 5630 5624 5619 5614 5611
5753 5753 5752 5752 5751 5750 5749 5747 5746 5744 5742 5740 5738 5735 5733 5730 5726 5722 5718 5714 5709 5705 5700 5695 5690 5685 5680 5675 5670 5665 5659 5654 5648 5643 5637 5632 5626 5620 5614 5608 5602 5596 5590
5746 5745 5745 5744 5743 5742 5741 5740 5738 5736 5734 5732 5729 5726 5723 5720 5716 5712 5707 5703 5698 5693 5688 5683 5678 5673 5668 5662 5657 5652 5646 5640 5634 5628 5623 5617 5610 5605 5598 5591 5585 5578 5571
5739 5738 5737 5737 5736 5734 5733 5732 5730 5728 5725 5723 5720 5717 5713 5709 5705 5701 5696 5691 5687 5681 5676 5671 5666 5660 5655 5649 5644 5638 5632 5626 5620 5614 5608 5601 5594 5588 5581 5574 5567 5559 5551
5731 5731 5730 5729 5728 5727 5725 5723 5721 5719 5716 5713 5710 5706 5703 5698 5694 5689 5685 5680 5675 5669 5664 5659 5653 5647 5642 5636 5630 5624 5618 5612 5605 5599 5592 5585 5578 5571 5563 5555 5548 5540 5531
5724 5723 5722 5721 5720 5718 5716 5714 5712 5709 5706 5703 5700 5696 5692 5687 5683 5678 5673 5668 5663 5657 5652 5646 5640 5634 5628 5622 5616 5610 5604 5597 5590 5583 5575 5567 5560 5552 5544 5536 5527 5518 5510
5716 5715 5714 5713 5711 5709 5707 5705 5702 5700 5696 5693 5689 5685 5680 5676 5671 5666 5661 5656 5650 5644 5639 5633 5626 5620 5614 5608 5601 5595 5589 5582 5575 5567 5558 5550 5541 5532 5522 5513 5505 5495 5486
5707 5706 5705 5704 5702 5700 5698 5695 5693 5689 5686 5682 5678 5673 5669 5664 5659 5654 5649 5643 5638 5632 5626 5619 5613 5606 5599 5593 5586 5579 5573 5565 5557 5549 5540 5531 5521 5511 5501 5491 5480 5470 5459
5699 5698 5696 5695 5693 5691 5688 5685 5682 5679 5675 5671 5666 5662 5657 5652 5647 5642 5637 5631 5625 5619 5613 5606 5599 5592 5585 5577 5570 5562 5555 5547 5538 5529 5520 5510 5500 5488 5478 5468 5458 5448 5435
5690 5689 5687 5685 5683 5681 5678 5675 5672 5668 5664 5660 5655 5650 5646 5641 5635 5630 5624 5618 5612 5606 5599 5592 5585 5578 5570 5561 5553 5545 5537 5529 5519 5508 5498 5487 5477 5465 5453 5444 5436 5426 5416
5681 5680 5678 5676 5673 5671 5668 5664 5661 5657 5652 5648 5643 5639 5634 5628 5623 5617 5611 5605 5599 5592 5585 5578 5570 5562 5554 5544 5535 5525 5517 5509 5499 5489 5477 5464 5454 5444 5431 5420 5411 5404 5396
5672 5670 5668 5666 5663 5660 5657 5653 5649 5645 5641 5637 5632 5627 5622 5616 5611 5605 5598 5592 5585 5578 5571 5563 5555 5546 5537 5527 5516 5505 5496 5488 5479 5469 5457 5444 5431 5420 5408 5397 5388 5381 5375
5662 5660 5658 5655 5652 5649 5646 5642 5638 5634 5630 5625 5620 5615 5609 5604 5598 5592 5585 5578 5571 5564 5557 5549 5540 5529 5518 5508 5496 5484 5472 5462 5454 5445 5435 5423 5411 5399 5388 5377 5369 5362 5356
5653 5651 5648 5645 5642 5638 5635 5631 5627 5623 5618 5613 5608 5603 5597 5591 5585 5578 5571 5564 5556 5548 5540 5531 5523 5512 5500 5488 5476 5464 5452 5439 5429 5421 5411 5401 5391 5380 5370 5361 5354 5347 5342
5643 5640 5638 5634 5631 5628 5624 5620 5616 5611 5607 5601 5596 5590 5584 5578 5571 5564 5557 5549 5540 5531 5522 5513 5504 5495 5483 5470 5456 5444 5432 5420 5408 5399 5390 5381 5371 5362 5355 5347 5340 5334 5330
5633 5630 5627 5624 5620 5617 5613 5609 5605 5600 5595 5590 5584 5578 5572 5565 5558 5550 5542 5533 5524 5514 5504 5493 5483 5474 5464 5451 5437 5426 5414 5403 5391 5381 5373 5364 5355 5347 5340 5334 5328 5323 5319
5623 5620 5617 5614 5610 5606 5602 5598 5593 5589 5583 5578 5572 5565 5558 5551 5544 5536 5526 5517 5507 5494 5484 5473 5462 5451 5442 5431 5417 5404 5393 5383 5373 5363 5356 5348 5341 5334 5328 5322 5317 5313 5310
5613 5610 5607 5603 5599 5595 5591 5587 5582 5577 5571 5566 5559 5552 5545 5537 5529 5520 5512 5501 5490 5479 5465 5452 5439 5428 5418 5407 5396 5385 5374 5364 5355 5346 5340 5333 5327 5321 5316 5312 5308 5304 5301